Regional Weather Roundup
Issued by NWS Wakefield, VA

Home | Current Version | Previous Version | Graphics & Text | Print | Product List | Glossary On
Versions: 1 2 3 4 5 6 7 8 9 10 11 12 13 14 15 16 17 18 19 20 21 22 23 24 25 26 27 28 29 30 31 32 33 34 35 36 37 38 39 40 41 42 43 44 45 46 47 48 49 50
000
ASUS41 KAKQ 020810
RWRAKQ

REGIONAL WEATHER ROUNDUP
NATIONAL WEATHER SERVICE WAKEFIELD VA
300 AM EST MON MAR 02 2015

Note: "fair" indicates few or no clouds below 12,000 feet with no
significant weather and/or obstructions to visibility. * = Denotes
station may not report precipitation (e.g., rain,snow,etc.),
thunder or fog.

VAZ042-051-052>054-056-020900-
NORTHERN VIRGINIA

CITY           SKY/WX    TMP DP  RH WIND       PRES   REMARKS
WASH NATIONAL  FOG       34  31  88 S5        30.14S VSB 1/8
DULLES         FOG       31  30  96 CALM      30.10F VSB 1/4
FORT BELVOIR   FOG       32  32 100 CALM      30.12F VSB 1/2
QUANTICO       CLOUDY    33  30  88 CALM      30.13F FOG
FREDERICKSBRG* CLOUDY    34  34 100 CALM      30.11F FOG
STAFFORD*      CLOUDY    32  32 100 CALM      30.15F FOG
WARRENTON      FOG       34  34 100 CALM      30.10F VSB 1/2
CULPEPER*      CLOUDY    34  34 100 CALM      30.10F FOG
MANASSAS*      CLOUDY    34  34 100 CALM      30.12F VSB 3/4
LEESBURG*      CLOUDY    32  32 100 CALM      30.10F FOG
WINCHESTER     PTCLDY    32  28  86 CALM      30.08F FOG
FRONT ROYAL*   FAIR      30  28  93 CALM      30.08F
LURAY*         CLOUDY    36  36 100 CALM      30.06F
$$

VAZ048-049-060>072-079>083-020900-
CENTRAL AND SOUTH CENTRAL VIRGINIA

CITY           SKY/WX    TMP DP  RH WIND       PRES   REMARKS
RICHMOND       FOG       33  32  96 SW3       30.15F VSB 1/4
CHESTERFIELD*  CLOUDY    34  23  64 SW3       30.14F VSB 3/4
PETERSBURG*    CLOUDY    35  34  99 S5        30.15F FOG
HANOVER        FOG       33  33 100 SW5       30.14F VSB 1/2
TAPPAHANNOCK*  FOG       34  32  92 S8        30.13F VSB 1/2
QUINTON*       CLOUDY    32  32  99 SW5       30.14F VSB 1
CHARLOTTSVILLE CLOUDY    32  31  96 S10       30.07F FOG     WCI  24
GORDONSVILLE*  CLOUDY    32  32  99 SW5       30.08F FOG
ORANGE*        CLOUDY    34  34 100 S3        30.10F FOG
LOUISA*        FOG       34  34 100 SW3       30.08F VSB 1/2
BUMPASS*       CLOUDY    32  32 100 SW5       30.12F VSB 1/2
FARMVILLE*     FOG       35  35 100 S8        30.11F VSB 1/2
CREWE*         CLOUDY    34  32  94 SW8       30.12F
FORT PICKETT*  CLOUDY    33  32  98 SW13      30.13F VSB 1/2 WCI  23
CHASE CITY*    CLOUDY    35  35 100 SW3       30.16F VSB 1/4
CLARKSVILLE*   CLOUDY    32  32 100 SW5       30.17F VSB 1/4
SOUTH HILL*    CLOUDY    32  32 100 SW6       30.22F VSB 1/4
LAWRENCEVILLE* CLOUDY    32  32 100 SW7       30.15F VSB 1/2
EMPORIA*       FOG       32  32 100 S3        30.20F VSB 1/2
$$

VAZ088>098-020900-
SOUTHEAST VIRGINIA

CITY           SKY/WX    TMP DP  RH WIND       PRES   REMARKS
NORFOLK        CLEAR     34  32  92 SW13      30.13F WCI  25
VIRGINIA BEACH PTCLDY    36  33  89 SW13      30.13F
NORFOLK NAVAL  PTCLDY    37  32  82 W5        30.17F
WEST POINT*    CLOUDY    35  33  92 SW3       30.17F
SALUDA*        CLOUDY    33  32  98 W6        30.14F
NEWPORT NEWS   CLOUDY    36  33  89 W8        30.16F
LANGLEY AFB    PTCLDY    34  32  94 W7        30.16R
FORT EUSTIS    CLOUDY    34  34 100 NW6       30.14F
WILLIAMSBURG*  CLOUDY    36  36 100 W5        30.16F
HR EXEC AP*    CLOUDY    34  30  86 SW9       30.18F
FRANKLIN*      FOG       33  33  99 SW5       30.18F VSB 1
WAKEFIELD      CLOUDY    33  31  92 SW7       30.17F FOG
$$

VAZ020-022-025-037-045-020900-
WEST CENTRAL AND SOUTHWEST VIRGINIA

CITY           SKY/WX    TMP DP  RH WIND       PRES   REMARKS
STAUNTON*      PTCLDY    40  36  86 S3        30.08F
WAYNESBORO*    PTSUNNY   45  40  83 W8        30.07S
HOT SPRINGS VA SNOW      39  39 100 W20G29    30.05F VSB<1/4
LYNCHBURG      MOCLDY    32  32 100 S6        30.13F FOG
DANVILLE       FOG       37  35  92 SW13      30.17F VSB 3/4
SOUTH BOSTON*  CLOUDY    36  34  95 SW8       30.16F VSB 1/2
MARTINSVILLE   CLOUDY    37  37 100 SW3       30.19F FOG
ROANOKE        MOCLDY    47  41  80 W14G23    30.16S
BLACKSBURG     CLOUDY    41  40  98 W6        30.18F FOG
DUBLIN*        DRIZZLE   43  43 100 CALM      30.17F
MARION*        RAIN      43  42  96 W16       30.20F
HILLSVILLE*    CLOUDY    44  44  99 CALM      30.16F
RICHLANDS*     RAIN      40  39  95 SW13      30.22R
WISE*          LGT RAIN  41  41 100 W7        30.23S VSB 3/4
ABINGDON*      RAIN      42  42 100 NW3       30.24R
$$

MDZ021>025-VAZ099-100-020900-
SOUTHERN MARYLAND AND THE DELMARVA PENINSULA

CITY           SKY/WX    TMP DP  RH WIND       PRES   REMARKS
PATUXENT RIVER CLOUDY    33  31  92 SW6       30.11F FOG
BAY BRIDGE APT FOG       32  32 100 CALM      30.12F VSB 1/2
LEONARDTOWN    CLOUDY    32  32 100 W6        30.14F VSB 1
DOVER          CLOUDY    32  32 100 CALM      30.10F
GEORGETOWN     CLOUDY    32  31  96 VRB7      30.12F FOG
EASTON         FOG       33  33 100 CALM      30.16F VSB 1/4
CAMBRIDGE      NOT AVBL
SALISBURY      CLOUDY    35  32  88 W6        30.12F FOG
OCEAN CITY     FOG       32  32 100 W5        30.13F VSB 1
WALLOPS ISLAND CLOUDY    32  32 100 W10       30.14F FOG     WCI  24
ACCOMACK*      CLOUDY    32  32 100 SW10G16   30.14F FOG     WCI  24
$$

NCZ012>017-030>032-020900-
NORTH CENTRAL AND EASTERN NORTH CAROLINA

CITY           SKY/WX    TMP DP  RH WIND       PRES   REMARKS
ROANOKE RAPIDS FOG       34  34 100 SW6       30.20F VSB 1/4
RALEIGH        FOG       36  34  92 SW5       30.20F VSB 1/4
ELIZABETH CITY FOG       37  36  96 SW8       30.19F VSB 1
AHOSKIE*       FOG       33  33  98 CALM      30.19F VSB 1
EDENTON*       FOG       37  36  98 SW6       30.21F VSB 1/2
CURRITUCK*     CLOUDY    37  36  96 SW8       30.19F FOG
KILL DEVIL HLS FOG       38  38 100 W7        30.18F VSB 1/4
MANTEO         FOG       39  39 100 W6        30.20F VSB 1/2
CAPE HATTERAS  FOG       43  43 100 W8        30.22S VSB 1
TARBORO*       CLOUDY    37  36  97 SW3       30.22F FOG
GOLDSBORO      FOG       39  39 100 SW7       30.21F VSB 1/2
WASHINGTON     FOG       38  37  98 W6        30.23F VSB 3/4
GREENVILLE     FOG       37  37 100 CALM      30.24F VSB 1/2
NEW BERN       FOG       44  42  93 W5        30.24F VSB 3/4
WILMINGTON     CLOUDY    44  43  96 SW5       30.25F FOG
$$

VAZ048-020900-
ELSEWHERE

CITY           SKY/WX    TMP DP  RH WIND       PRES   REMARKS
HARRISBURG PA  CLOUDY    27  24  89 W3        30.10F FOG
BALTIMORE      CLOUDY    32  31  96 W3        30.09F FOG
ANNAPOLIS      CLOUDY    32  31  96 MISG      30.11F FOG
ANDREWS AFB    NOT AVBL
PHILADELPHIA   CLOUDY    32  30  92 SW7       30.11F FOG
HENDERSON NC   FOG       34  33  96 SW12      30.17F VSB 1/4
GREENSBORO     FOG       36  35  96 SW9       30.18F VSB 1/4
ROCKY MOUNT    CLOUDY    37  37 100 SW6       30.21F FOG
$$

VAZ100-020900-
MARINE

STATION/POSITION TIME  TEMP    WIND        PRES    WAVE   SWELL
                       AIR SEA DIR/SP/G            HT/PER HT/PER
                 (UTC) (F)     (DEG/KT/KT) (MB)    (FT/S) (FT/S)
BRANDYWINE LGT   0800   32 30              1019.8F
CAPE MAY NJ      0800   31 32              1019.5F
LEWES DE         0800   33 30              1019.8F
15NM E FENWICK I 0800   33 34              1019.9F   3/ 6
OCEAN-CITY-INLET 0800   33 32              1020.2F
WACHAPREAGUE VA  0800   34 33  270/  4/  7 1020.9F
THOMAS POINT MD  0800   31 31     CALM     1020.9F
COVE POINT MD    0800   32                 1019.6F
SOLOMONS ISLAND  0800      32                N/A
BISHOPS HEAD MD  0800   32 31              1019.7F
CAMBRIDGE MD     0800   32 32              1020.0R
LEWISETTA VA     0800   33 32              1020.0F
RAPPAHANNOCK LGT 0800          240/  1/  1 1021.3F
STINGRAY PT      0800   33     290/  4/  4   N/A
YORK RVR RNG VA  0800   34     300/ 10/ 12 1020.9R
YORKTOWN VA      0800   34 33  280/  7/ 10 1021.2S
DOMINION TERM VA 0800   34     240/  8/  9 1021.0F
KIPTOPEKE VA     0800          290/ 10/ 12   N/A
CHES BAY BRIDGE  0800          210/ 11/ 14   N/A
CAPE HENRY VA    0800   36     230/  9/ 16 1019.2F
CHESAPEAKE LGHT  0700   35     240/ 12/ 12 1022.6F
WILLOUBY STN VA  0800          240/ 12/ 13   N/A
S CRANEY ISL VA  0800          220/  5/  8 1020.8F
CAPE HENRY BUOY  0800      35                N/A     3/ 6
1ST LANDING BUOY 0800   35     230/ 12/ 14 1020.4F
OFFSHORE WE BUOY 0800      36                N/A     4/ 6   3/ 6
64NM E OF VA BCH 0800   43 53  260/ 16/ 17 1021.1F   4/ 6   3/ 7
DUCK PIER NC     0800   37 34  250/ 13/ 17 1021.7S
44100 DUCK FRF   0700      37                N/A     4/ 7
44056 DUCK FRF   0800                        N/A     4/ 6
OREGON INLET NC  0800   43 41  250/  8/ 11 1022.4F
HATTERAS NC      0800   42 41  290/  8/  9 1023.7S
CAPE LOOKOUT NC  0700   46     230/  4/  6 1024.5F
$$



USA.gov is the U.S. government's official web portal to all federal, state and local government web resources and services.